Aérodrome :
LOGIN :

S'inscrire | Disclaimer

   EN    FR    IT 

 










Légende :    VFR   VFR Marginal   IFR   IFR Intensif   IFR Très Intensif
Visi : 
Plafond : 
>= 8 km
>= 3000ft
5 à 8 km
1000 à 3000 ft
1500m à 5 km
500 à 1000 ft
800 à 1500m
200 à 500 ft
< 800m
< 200 ft
Symboles :   Orages  Brouillard  Fortes neiges  Fortes précipitations  Vent > 20 kt
SIGMETs :   Divers  Orages  Givrage  Turbulence  Onde Orograph.  Cendres Volcan.






- Altitude de l'aérodrome : 2026 ft
- Code IATA : TOJ


LETO - Madrid Torrejon

DERNIER METAR :
  • 191500Z 22006KT 190V250 CAVOK 10/03 Q1015 NOSIG

METARs EXPIRÉS :
  • 191400Z 21004KT 160V260 CAVOK 10/03 Q1015 NOSIG
  • 191300Z 23006KT 180V270 CAVOK 09/02 Q1016 NOSIG

TAF TAF LETO
Valide du 19 à 12h jusqu'au 20 à 12h UTC


191100Z 1912/2012 VRB05KT CAVOK TX11/1915Z TN01/2007Z
PROB30
TEMPO 1913/1918 22010KT
PROB30
TEMPO 2005/2012 BKN010



MET'MAP, la Météo Aéronautique d'un coup d'oeil ! - Copyright ORBIFLY Décembre 2007 - Disclaimer

ORBIFLY MET'MAP TEAM :

Programmation & Développement : Alexandra Zaïnal
Conception & Développement : Baudouin d'Aumeries
Co-Programmation & Développement : Marc-Olivier Méhu
Soutien technique & logistique : Manuel Goepfert

Contact : metmap@orbifly.com




SOURCES & CREDITS :

   NOAA